This is the latest recevied weather packets stored in our database for station/object OK3FM-14. If no packets are shown the sender has not sent any weather packets the latest 10 day(s).
| Time | Temp. | Humidity | Pressure | Rain* | Wind** | Luminosity | Snow |
|---|---|---|---|---|---|---|---|
| 1787878045 | 16.11° C | 82% | 1016.3 hPa | - | - | - | - |
| 1787877446 | 16.11° C | 81% | 1016.4 hPa | - | - | - | - |
| 1787876846 | 16.11° C | 81% | 1016.5 hPa | - | - | - | - |
| 1787876246 | 16.11° C | 81% | 1016.6 hPa | - | - | - | - |
| 1787875646 | 16.11° C | 81% | 1016.7 hPa | - | - | - | - |
| 1787875046 | 16.67° C | 80% | 1016.8 hPa | - | - | - | - |
| 1787874446 | 16.67° C | 80% | 1016.9 hPa | - | - | - | - |
| 1787873846 | 16.67° C | 78% | 1017.1 hPa | - | - | - | - |
| 1787873246 | 16.67° C | 78% | 1016.9 hPa | - | - | - | - |
| 1787872646 | 16.67° C | 77% | 1016.8 hPa | - | - | - | - |
| 1787872046 | 17.22° C | 77% | 1017 hPa | - | - | - | - |
| 1787871446 | 17.22° C | 78% | 1017.1 hPa | - | - | - | - |
| 1787870846 | 17.22° C | 75% | 1017.4 hPa | - | - | - | - |
| 1787870246 | 17.22° C | 74% | 1017.4 hPa | - | - | - | - |
| 1787869646 | 17.78° C | 74% | 1017.5 hPa | - | - | - | - |
| 1787869050 | 17.78° C | 73% | 1017.6 hPa | - | - | - | - |
| 1787868444 | 17.78° C | 71% | 1017.4 hPa | - | - | - | - |
| 1787867844 | 18.33° C | 69% | 1017.4 hPa | - | - | - | - |
| 1787867244 | 18.89° C | 67% | 1017.6 hPa | - | - | - | - |
| 1787866644 | 19.44° C | 65% | 1017.5 hPa | - | - | - | - |
| 1787866044 | 20° C | 63% | 1017.5 hPa | - | - | - | - |
| 1787865444 | 20.56° C | 60% | 1017.4 hPa | - | - | - | - |
| 1787864845 | 21.11° C | 59% | 1017.5 hPa | - | - | - | - |
| 1787864244 | 20.56° C | 60% | 1017.7 hPa | - | - | - | - |
| 1787863644 | 21.11° C | 59% | 1017.5 hPa | - | - | - | - |
* Rain since midnight (hover to see other rain measurements)
** Current wind speed in m/s (hover to see current wind gust speed)